• en France
  • Liste des pays
  • À 7 jours
  • Température de l'eau
  • Carte satellitaire
  • Carte météo
  • Widgets météo
  • user-avatar
    Se connecter

    Météo par heure à Hoeryŏng

    Ce jour, 18 Décembre, Lundi

    Heure Température Précipitation Vent Pression Humidité
    00:00 -7°C° 0 mm 1 m/s 764 mmHg 58%
    01:00 -7°C° 0 mm 1 m/s 764 mmHg 60%
    02:00 -6°C° 0 mm 1 m/s 764 mmHg 61%
    03:00 -6°C° 0,1 mm 1 m/s 764 mmHg 66%
    04:00 -6°C° 0,1 mm 1 m/s 763 mmHg 71%
    05:00 -6°C° 0,1 mm 1 m/s 763 mmHg 75%
    06:00 -6°C° 0 mm 1 m/s 763 mmHg 77%
    07:00 -6°C° 0 mm 1 m/s 763 mmHg 80%
    08:00 -4°C° 0 mm 1 m/s 763 mmHg 82%
    09:00 -5°C° 0,2 mm 2 m/s 762 mmHg 81%
    10:00 -3°C° 0,2 mm 2 m/s 762 mmHg 80%
    11:00 -2°C° 0,2 mm 2 m/s 762 mmHg 79%
    12:00 -1°C° 0,2 mm 2 m/s 761 mmHg 81%
    13:00 -1°C° 0,2 mm 2 m/s 761 mmHg 82%
    14:00 +1°C° 0,2 mm 2 m/s 760 mmHg 84%
    15:00 0°C° 0,3 mm 3 m/s 760 mmHg 85%
    16:00 0°C° 0,3 mm 3 m/s 760 mmHg 85%
    17:00 0°C° 0,3 mm 3 m/s 760 mmHg 86%
    18:00 -2°C° 0,1 mm 4 m/s 761 mmHg 83%
    19:00 -3°C° 0,1 mm 4 m/s 761 mmHg 80%
    20:00 -5°C° 0,1 mm 5 m/s 761 mmHg 77%
    21:00 -5°C° 0 mm 4 m/s 762 mmHg 74%
    22:00 -7°C° 0 mm 4 m/s 763 mmHg 71%
    23:00 -8°C° 0 mm 4 m/s 763 mmHg 68%

    Demain, 19 Décembre, Mardi

    Heure Température Précipitation Vent Pression Humidité
    00:00 -7°C° 0 mm 3 m/s 764 mmHg 66%
    01:00 -7°C° 0 mm 3 m/s 764 mmHg 65%
    02:00 -6°C° 0 mm 2 m/s 765 mmHg 63%
    03:00 -7°C° 0 mm 2 m/s 765 mmHg 63%
    04:00 -7°C° 0 mm 2 m/s 765 mmHg 64%
    05:00 -8°C° 0 mm 3 m/s 765 mmHg 64%
    06:00 -8°C° 0 mm 3 m/s 765 mmHg 61%
    07:00 -8°C° 0 mm 3 m/s 766 mmHg 58%
    08:00 -9°C° 0 mm 4 m/s 766 mmHg 55%
    09:00 -8°C° 0 mm 4 m/s 766 mmHg 51%
    10:00 -8°C° 0 mm 4 m/s 766 mmHg 46%
    11:00 -7°C° 0 mm 4 m/s 766 mmHg 41%
    12:00 -7°C° 0 mm 4 m/s 766 mmHg 42%
    13:00 -5°C° 0 mm 4 m/s 766 mmHg 42%
    14:00 -5°C° 0 mm 4 m/s 765 mmHg 43%
    15:00 -6°C° 0 mm 3 m/s 765 mmHg 48%
    16:00 -7°C° 0 mm 3 m/s 766 mmHg 54%
    17:00 -7°C° 0 mm 2 m/s 766 mmHg 60%
    18:00 -7°C° 0 mm 2 m/s 766 mmHg 61%
    19:00 -6°C° 0 mm 1 m/s 766 mmHg 62%
    20:00 -7°C° 0 mm 1 m/s 766 mmHg 63%
    21:00 -7°C° 0 mm 1 m/s 767 mmHg 63%
    22:00 -7°C° 0 mm 1 m/s 767 mmHg 64%
    23:00 -7°C° 0 mm 1 m/s 767 mmHg 64%

    Après-demain, 20 Décembre, Mercredi

    Heure Température Précipitation Vent Pression Humidité
    00:00 -7°C° 0 mm 1 m/s 767 mmHg 64%
    01:00 -7°C° 0 mm 1 m/s 766 mmHg 64%
    02:00 -7°C° 0 mm 1 m/s 766 mmHg 64%
    03:00 -7°C° 0 mm 1 m/s 766 mmHg 64%
    04:00 -8°C° 0 mm 2 m/s 766 mmHg 65%
    05:00 -8°C° 0 mm 2 m/s 765 mmHg 66%
    06:00 -8°C° 0,1 mm 2 m/s 765 mmHg 65%
    07:00 -7°C° 0,1 mm 2 m/s 765 mmHg 65%
    08:00 -7°C° 0,1 mm 2 m/s 765 mmHg 65%
    09:00 -6°C° 0,2 mm 2 m/s 765 mmHg 65%
    10:00 -4°C° 0,2 mm 2 m/s 764 mmHg 65%
    11:00 -3°C° 0,2 mm 2 m/s 764 mmHg 66%
    12:00 -3°C° 1 mm 2 m/s 763 mmHg 74%
    13:00 -3°C° 1 mm 2 m/s 763 mmHg 82%
    14:00 -3°C° 1 mm 2 m/s 762 mmHg 91%
    15:00 -3°C° 1,2 mm 2 m/s 762 mmHg 92%
    16:00 -3°C° 1,2 mm 2 m/s 762 mmHg 94%
    17:00 -3°C° 1,2 mm 2 m/s 762 mmHg 96%
    18:00 -2°C° 0,1 mm 1 m/s 762 mmHg 95%
    19:00 -2°C° 0,1 mm 1 m/s 763 mmHg 95%
    20:00 -3°C° 0,1 mm 1 m/s 763 mmHg 95%
    21:00 -3°C° 0 mm 1 m/s 763 mmHg 95%
    22:00 -5°C° 0 mm 2 m/s 764 mmHg 95%
    23:00 -5°C° 0 mm 2 m/s 764 mmHg 96%

    21 Décembre, Jeudi

    Heure Température Précipitation Vent Pression Humidité
    00:00 -6°C° 0 mm 2 m/s 764 mmHg 96%
    01:00 -4°C° 0 mm 1 m/s 765 mmHg 96%
    02:00 -6°C° 0 mm 1 m/s 765 mmHg 95%
    03:00 -6°C° 0 mm 1 m/s 765 mmHg 95%
    04:00 -6°C° 0 mm 1 m/s 765 mmHg 94%
    05:00 -7°C° 0 mm 1 m/s 765 mmHg 94%
    06:00 -6°C° 0 mm 1 m/s 766 mmHg 93%
    07:00 -6°C° 0 mm 1 m/s 766 mmHg 91%
    08:00 -6°C° 0 mm 1 m/s 766 mmHg 90%
    09:00 -3°C° 0 mm 1 m/s 766 mmHg 83%
    10:00 -2°C° 0 mm 1 m/s 766 mmHg 75%
    11:00 0°C° 0 mm 1 m/s 766 mmHg 68%
    12:00 0°C° 0 mm 1 m/s 766 mmHg 67%
    13:00 +1°C° 0 mm 1 m/s 765 mmHg 66%
    14:00 +1°C° 0 mm 1 m/s 765 mmHg 65%
    15:00 0°C° 0 mm 1 m/s 765 mmHg 70%
    16:00 -2°C° 0 mm 1 m/s 765 mmHg 75%
    17:00 -3°C° 0 mm 1 m/s 765 mmHg 80%
    18:00 -3°C° 0 mm 1 m/s 765 mmHg 81%
    19:00 -3°C° 0 mm 1 m/s 765 mmHg 81%
    20:00 -3°C° 0 mm 1 m/s 765 mmHg 82%
    21:00 -3°C° 0 mm 1 m/s 765 mmHg 83%
    22:00 -3°C° 0 mm 1 m/s 764 mmHg 84%
    23:00 -3°C° 0 mm 1 m/s 764 mmHg 85%

    22 Décembre, Vendredi

    Heure Température Précipitation Vent Pression Humidité
    00:00 -3°C° 0 mm 1 m/s 764 mmHg 86%
    01:00 -2°C° 0 mm 1 m/s 764 mmHg 87%
    02:00 -2°C° 0 mm 1 m/s 764 mmHg 87%
    03:00 -2°C° 0 mm 1 m/s 764 mmHg 88%
    04:00 -2°C° 0 mm 1 m/s 764 mmHg 89%
    05:00 -2°C° 0 mm 1 m/s 763 mmHg 89%
    06:00 -2°C° 0 mm 1 m/s 764 mmHg 89%
    07:00 -1°C° 0 mm 1 m/s 764 mmHg 89%
    08:00 -1°C° 0 mm 1 m/s 764 mmHg 89%
    09:00 0°C° 0 mm 1 m/s 764 mmHg 88%
    10:00 +2°C° 0 mm 1 m/s 763 mmHg 86%
    11:00 +3°C° 0 mm 1 m/s 763 mmHg 85%
    12:00 +3°C° 0 mm 1 m/s 763 mmHg 86%
    13:00 +3°C° 0 mm 1 m/s 762 mmHg 88%
    14:00 +4°C° 0 mm 1 m/s 762 mmHg 89%
    15:00 +3°C° 0 mm 1 m/s 762 mmHg 91%
    16:00 +2°C° 0 mm 1 m/s 762 mmHg 92%
    17:00 +2°C° 0 mm 1 m/s 762 mmHg 94%
    18:00 +1°C° 0 mm 1 m/s 762 mmHg 94%
    19:00 +1°C° 0 mm 1 m/s 762 mmHg 94%
    20:00 +1°C° 0 mm 1 m/s 762 mmHg 93%
    21:00 +2°C° 0 mm 1 m/s 761 mmHg 93%
    22:00 +2°C° 0 mm 1 m/s 761 mmHg 93%
    23:00 +2°C° 0 mm 1 m/s 761 mmHg 93%

    23 Décembre, Samedi

    Heure Température Précipitation Vent Pression Humidité
    00:00 +2°C° 0,1 mm 1 m/s 761 mmHg 93%
    01:00 +2°C° 0,1 mm 1 m/s 761 mmHg 93%
    02:00 +2°C° 0,1 mm 1 m/s 760 mmHg 93%
    03:00 +2°C° 0 mm 1 m/s 760 mmHg 93%
    04:00 +2°C° 0 mm 1 m/s 760 mmHg 93%
    05:00 +2°C° 0 mm 1 m/s 760 mmHg 94%
    06:00 +2°C° 0 mm 1 m/s 760 mmHg 94%
    07:00 +2°C° 0 mm 1 m/s 760 mmHg 94%
    08:00 +2°C° 0 mm 1 m/s 760 mmHg 94%
    09:00 +3°C° 0 mm 1 m/s 760 mmHg 94%
    10:00 +4°C° 0 mm 1 m/s 759 mmHg 93%
    11:00 +5°C° 0 mm 1 m/s 759 mmHg 92%
    12:00 +5°C° 0 mm 1 m/s 759 mmHg 91%
    13:00 +5°C° 0 mm 1 m/s 758 mmHg 91%
    14:00 +5°C° 0 mm 2 m/s 758 mmHg 90%
    15:00 +4°C° 0 mm 2 m/s 758 mmHg 90%
    16:00 +3°C° 0 mm 2 m/s 758 mmHg 90%
    17:00 +2°C° 0 mm 2 m/s 758 mmHg 90%
    18:00 +2°C° 0 mm 2 m/s 758 mmHg 90%
    19:00 +2°C° 0 mm 2 m/s 758 mmHg 90%
    20:00 +3°C° 0 mm 1 m/s 758 mmHg 90%
    21:00 +2°C° 0 mm 1 m/s 758 mmHg 90%
    22:00 +2°C° 0 mm 1 m/s 757 mmHg 90%
    23:00 +1°C° 0 mm 1 m/s 757 mmHg 90%
    Voir plus

    XHprof extension not loaded